Find Starlink 31512

NORAD ID: 59500 Int'l Des: 2024-071 Owner: SPXS Country: US Constellation: starlink operational
LEOCIRCULAR

リアルタイム位置

3D地球を読み込み中...

Starlink 31512について

説明を読み込み中...

次回通過

Passes for default location (London). Set your location on the main map for personalized predictions.

高度履歴

Loading altitude history...

軌道要素

1 59500U 24071S 26125.98404712 .00011510 00000-0 42757-3 0 9990
2 59500 43.0025 336.0262 0000920 223.7683 136.3096 15.27545142117428
Epoch: May 5, 2026 • Age: 15 hours

現在のステータス

高度 495.9 km
速度 7.62 km/s
衛星直下点 -42.83°S, 162.49°E
打ち上げ日 Apr 13, 2024
運用期間 2 years
タイプ internet

技術仕様

分類 Payload
質量 730.00 kg
乾燥質量 700.00 kg
総質量 730.00 kg
長さ 0.30 m
直径 4.10 m
スパン 29.00 m
形状 Box + pan
製造者 SPXS
バスタイプ Starlink V2M
フェーズステータス In Orbit
所有者/国 SPXS/US

Most Searched